Showing default

ORBCOMM FM 118, 41183

Orbit data source: Space-Track

ORBCOMM FM 118, 41183 is a payload satellite owned by Orbcomm (US) in LEO that was launched on Tue, 22 Dec 2015 UTC via an FALCON 9 launch vehicle from the Air Force Eastern Test Range (AFETR). Payloads include a variety of satellites, spacecraft, and rockets equipped with specific instruments for various scientific and technological missions. These include communications satellites like Starlink; space stations such as the ISS; scientific satellites like the Hubble; Earth observation satellites from companies like Planet Labs, Umbra, and HawkEye 360; GPS; miniature CubeSats for education and research; and military/defense satellites.

Loading next visibility...
ORBCOMM FM 118 details
Identifier
41183, 2015-081E
Orbit
LEO
Last TLE update7 hours ago
Origin
Flag of USOrbcomm (US / ORB)
ManufacturerSNC Louisville
MissionOperational Commercial Communications
Bus & MotorSN-100A, Unknown motor
Mass172 kg wet, 158 kg dry
Launch date (UTC)
2015-12-22 (9 years ago)
Launch vehicle
FALCON 9
Launch site
Air Force Eastern Test Range (AFETR)
Object type
Payload
Rocket body
Debris
Shape & HBRBox + 1 Pan + 1 Ant, 13 m
Radar Cross Section2.222 m², Medium (>0.1 m² and < 1m²)

Expand to show TLE details & history

TLE from 7 hours ago
0 ORBCOMM FM 118
1 41183U 15081E   24361.19974911  .00002905  00000-0  66790-3 0  9996
2 41183  47.0048  23.3704 0001422  25.8823 334.2133 14.57619186479207
Epoch: 2024-12-26T04:47Z
Definitive object data (Epoch: 2024-12-26T04:47:38.323Z)
Latitude-0.00002°
Longitude-143.72186°
Altitude700.181 km
Speed7.508 km/s
True Right ascension01h 33m 28s
True Declination0° 00' 00"
Sunlit
Object was in daylight at TLE epoch
Visualization TLE readout
Latitude-4.31295°
Longitude38.82747°
Altitude702.679 km
Speed7.505 km/s
Apparent Right ascension16h 31m 02s
Apparent Declination-49° 36' 23"
Sunlit
Object is in daylight
Visualization observer readout
Local Sidereal Time11:34:50
Azimuth138.263° SSE
Elevation-20.616°
Doppler factor1
Orbital elements
Apogee altitude703.112 km
Perigee altitude701.099 km
Semi-major axis7,080.242 km
Eccentricity0.0001422
Inclination47.0048°
RAAN23.3704°
Arg. of periapsis25.8823°
True anomaly334.20621°
Mean anomaly334.2133°
Eccentric anomaly334.20976°
Mean motion3.6431 °/min
BSTAR0.0006679
Orbital period98.82 mins
Loading maneuver chart data...
Loading historical data...
Loading historical data...
Loading historical data...
Loading historical data...
Loading historical data...
Loading historical data...
Loading historical data...

ORBCOMM FM 118 Visibility forecast

Observer location: undefined°, undefined

Span
Click to sort rows by Start time (UTC) header in descending order
Start Az.
Max El. time (UTC)
Max El. Az.
Max El.
End time (UTC)
End Az.
8 mins2024-12-27 03:59:22.078Z200.042° SSW2024-12-27 04:03:22.078Z133.623° SE29.406°2024-12-27 04:07:22.078Z76.815° E
8 mins2024-12-27 05:43:22.078Z259.631° W2024-12-27 05:46:22.078Z326.192° NNW42.084°2024-12-27 05:51:22.078Z59.136° ENE
7 mins2024-12-27 07:27:22.078Z297.57° NW2024-12-27 07:30:22.078Z348.798° N30.616°2024-12-27 07:34:22.078Z59.051° ENE
8 mins2024-12-27 09:11:22.078Z307.16° NW2024-12-27 09:15:22.078Z35.171° NE36.376°2024-12-27 09:19:22.078Z91.012° ESE
8 mins2024-12-27 10:55:22.078Z286.371° WNW2024-12-27 10:58:22.078Z226.205° WSW39.516°2024-12-27 11:03:22.078Z137.958° SSE
|